Flag for US Virgin Islands Weather past 2 weeks in Charlotte Amalie, US Virgin Islands

Now
84 °F

Broken clouds.


Feels Like: 92 °F
Forecast: 80 / 86 °F
Wind: 9 mph from Southeast

Location: Cyril E. King International Airport

Current Time: May 29, 2015 at 9:30:30 AM

Latest Report: May 29, 2015 at 8:53 AM


Visibility: 10 mi

Pressure: 30.00 "Hg

Humidity: 74%

Dew point: 75 °F

Location of Charlotte AmalieLocation

Historic Weather in Charlotte Amalie — Graph

°F

Charlotte Amalie temperature yesterday

Maximum temperature yesterday: 86 °F (at 1:20 PM)
Minimum temperature yesterday: 76 °F (at 1:53 AM)
Average temperature yesterday: 82 °F

Past Weeks' High & Low Weather Summary

 TemperatureHumidityPressure
High88 °F (May 25, 3:00 PM)100% (May 16, 1:21 PM)30.14 "Hg (May 16, 1:21 PM)
Low73 °F (May 17, 3:53 AM)51% (May 24, 4:53 PM)29.92 "Hg (May 27, 3:53 PM)
Average81 °F76%30.03 "Hg
* Reported May 14 7:53 AM — May 29 7:53 AM, Charlotte Amalie, Weather by CustomWeather, © 2015

Note: Actual official high and low records may vary slightly from our data, if they occured in-between our weather recording intervals... More about our weather records

Advertising

Charlotte Amalie weather history for previous 24 hours

 ConditionsComfort  
Time TempWeatherWind HumidityBarometerVisibility
7:53 AM
Fri, May 29
83 °FOvercast.8 mph74%29.98 "Hg10 mi
6:53 AM80 °FOvercast.7 mph85%29.96 "Hg10 mi
5:53 AM79 °FOvercast.3 mph84%29.96 "Hg10 mi
4:53 AM79 °FOvercast.5 mph84%29.95 "Hg10 mi
3:53 AM79 °FOvercast.3 mph84%29.95 "Hg10 mi
2:53 AM80 °FOvercast.5 mph85%29.95 "Hg10 mi
1:53 AM80 °FOvercast.3 mph81%29.96 "Hg10 mi
12:53 AM79 °FOvercast.5 mph84%29.98 "Hg10 mi
11:53 PM
Thu, May 28
79 °FOvercast.5 mph84%30.00 "Hg10 mi
10:53 PM79 °FOvercast.3 mph79%30.00 "Hg10 mi
9:53 PM82 °FOvercast.9 mph72%30.00 "Hg10 mi
8:53 PM82 °FMostly cloudy.10 mph77%30.00 "Hg10 mi
7:53 PM82 °FOvercast.10 mph74%29.98 "Hg10 mi
7:12 PM82 °FOvercast.12 mph74%29.97 "Hg10 mi
5:53 PM83 °FOvercast.12 mph72%29.95 "Hg10 mi
4:53 PM84 °FMostly cloudy.10 mph70%29.94 "Hg10 mi
3:53 PM85 °FOvercast.13 mph68%29.94 "Hg10 mi
2:53 PM86 °FOvercast.12 mph67%29.95 "Hg10 mi
1:53 PM86 °FOvercast.8 mph65%29.96 "Hg10 mi
1:20 PM86 °FMostly cloudy.10 mph67%29.97 "Hg10 mi
12:53 PM85 °FMostly cloudy.8 mph70%29.98 "Hg10 mi
12:32 PM85 °FScattered clouds.8 mph68%29.98 "Hg10 mi
11:53 AM85 °FPassing clouds.6 mph68%29.99 "Hg10 mi
10:53 AM84 °FPassing clouds.10 mph67%30.00 "Hg10 mi
9:53 AM84 °FScattered clouds.9 mph70%30.00 "Hg10 mi
Weather by CustomWeather, © 2015

See weather overviewHow to use our weather pages